Theta_e
292 292 291 292 292 293 293 294 294 294 294 295 295 296 296 296 295 294 294 294 294 294 295 296 297 298 299 301 304 306 306 312 322 324 329 329 331 331 331 330 331 330 329 327
289 289 291 292 293 294 294 295 294 294 294 295 295 295 295 295 295 295 294 294 294 294 295 296 296 296 298 300 302 304 306 307 312 322 326 328 329 331 331 331 330 328 329 327
288 290 292 293 294 294 293 294 294 295 295 293 295 295 294 294 294 295 295 294 294 293 294 294 294 295 297 299 301 303 305 307 307 318 323 328 328 328 328 329 329 329 328 327
287 291 294 294 293 293 293 294 294 293 293 294 294 294 294 294 292 293 294 294 295 294 293 294 294 294 295 297 301 302 303 306 307 316 320 325 326 327 326 327 327 328 328 329
288 291 292 292 293 293 291 292 291 293 293 293 292 294 292 292 291 290 291 291 292 294 293 293 294 295 295 296 299 302 304 304 305 311 318 318 324 326 324 324 326 326 326 327
291 292 290 291 292 291 291 290 290 285 284 284 291 295 293 292 291 290 289 289 291 292 292 294 294 295 295 296 298 299 303 304 305 307 314 317 318 319 318 318 318 324 324 324
290 291 293 292 286 285 283 281 284 284 281 288 292 292 292 290 290 290 289 289 290 290 292 291 293 295 296 297 297 299 302 303 305 306 310 314 317 316 314 313 318 320 323 322
283 287 289 292 290 286 284 285 293 292 291 292 292 291 294 289 289 288 287 288 288 288 288 291 291 292 296 298 299 299 302 303 305 309 310 313 315 316 316 314 315 319 319 321
281 286 291 291 292 288 284 287 291 294 279 284 287 294 291 290 288 287 287 286 286 286 286 288 290 290 292 298 302 303 305 305 312 313 312 315 314 317 317 316 317 315 317 314
284 289 290 291 288 287 288 292 293 285 288 285 287 289 289 288 287 286 285 285 285 285 285 286 289 291 291 294 299 303 307 310 313 317 313 316 315 314 314 315 316 315 315 317
276 285 286 286 282 281 287 289 293 293 291 291 289 286 285 287 286 285 284 284 284 284 284 285 286 288 291 293 296 302 304 306 309 312 314 314 314 313 312 313 316 316 316 315
283 283 281 284 286 284 286 292 294 292 289 291 291 288 287 287 285 284 284 283 283 283 283 284 285 286 291 292 293 299 301 304 306 309 312 312 312 312 314 315 315 316 315 317
281 286 286 284 283 282 284 292 292 292 291 288 290 287 286 286 285 283 283 282 282 282 282 284 284 285 287 290 291 296 296 298 303 305 308 309 311 312 311 311 313 314 314 316
291 289 289 289 288 282 289 289 290 291 288 288 289 288 287 286 284 283 282 282 281 281 281 282 283 284 286 288 290 293 293 293 296 299 302 305 307 308 309 310 311 312 312 312
288 283 278 284 286 286 286 287 288 289 287 288 285 286 287 285 283 282 282 281 281 281 281 281 282 283 285 286 287 289 292 293 294 295 295 297 299 301 303 305 308 309 311 311
286 283 278 287 283 274 280 286 288 290 288 288 287 285 284 283 282 281 281 280 280 280 280 281 281 283 283 285 286 287 288 291 293 294 295 295 295 295 297 300 303 305 307 309
285 284 285 283 277 278 285 283 288 286 286 286 287 286 282 283 282 281 280 280 279 279 279 280 281 282 283 284 285 286 287 290 291 292 293 294 294 294 295 297 300 302 303 306
289 284 289 285 280 281 285 280 282 286 285 285 285 284 282 282 282 281 280 279 279 280 280 281 282 283 283 284 284 286 288 288 290 291 292 292 292 292 294 295 296 297 299 301
288 288 289 285 275 282 287 286 285 283 287 283 283 281 279 281 282 282 280 278 279 279 279 281 282 283 284 285 285 286 288 288 289 289 289 289 290 291 291 293 294 295 296 297
288 287 289 278 283 280 283 284 283 280 284 279 281 279 278 284 279 277 280 279 279 279 279 279 280 280 281 282 284 285 286 286 287 287 287 287 288 289 290 290 291 292 293 295
285 284 287 278 288 282 281 286 288 285 284 277 282 282 281 282 280 282 280 279 279 279 279 279 279 279 279 280 280 281 282 284 284 285 286 286 287 288 288 289 290 290 291 291
284 283 279 278 283 286 284 287 287 284 283 285 284 284 283 282 282 281 280 279 279 280 280 280 279 280 279 280 280 280 280 281 281 283 285 285 286 286 287 287 288 288 289 290
285 285 285 285 284 281 287 288 290 288 288 285 285 284 283 282 281 280 280 280 280 280 280 280 280 280 280 280 280 280 280 281 280 281 282 284 285 285 286 286 286 287 287 288
286 283 288 287 285 282 289 289 290 289 288 287 286 285 284 282 281 280 280 280 280 280 280 280 281 281 280 280 280 280 280 280 280 281 281 281 282 284 284 285 285 285 285 286
288 287 289 288 288 288 289 289 289 288 286 286 285 285 284 282 281 281 281 281 280 280 280 280 280 281 281 280 280 280 279 279 279 280 280 280 281 282 283 283 284 284 284 284
288 288 288 288 288 288 288 290 290 289 287 286 286 285 284 282 281 281 281 280 280 280 280 280 280 281 281 281 280 279 279 278 278 279 279 280 280 280 281 282 282 283 284 284
Wind_Speed
3 3 7 11 10 12 14 15 21 30 26 19 22 24 30 26 26 25 34 34 35 38 38 40 39 37 48 41 37 30 32 24 37 40 41 38 41 42 45 46 43 45 46 40
4 8 11 6 7 11 17 17 26 27 17 10 26 32 28 28 26 27 30 31 32 34 38 32 36 38 38 44 43 35 30 36 33 40 40 40 39 41 43 44 43 40 43 46
5 11 9 11 12 16 21 12 19 20 29 19 17 21 16 18 14 20 25 30 31 31 32 39 42 40 38 36 44 39 32 29 32 37 40 41 40 41 39 45 45 43 43 45
6 5 8 11 14 14 17 6 13 21 15 13 8 15 18 10 9 15 14 22 23 30 36 40 40 40 40 35 36 37 36 28 31 34 37 40 40 40 40 42 43 46 47 45
10 8 13 14 10 10 12 12 15 20 18 14 5 7 5 9 9 17 17 24 30 28 28 36 39 39 39 35 33 31 33 33 26 32 38 36 38 36 31 31 34 39 42 44
15 9 3 7 7 6 14 9 16 2 2 1 7 5 1 4 10 14 16 24 28 29 27 19 25 34 34 35 29 27 25 25 28 30 37 37 35 34 30 29 31 36 39 39
6 4 4 4 7 6 8 6 4 5 4 6 9 11 4 8 11 12 17 23 27 29 24 20 15 17 24 24 28 25 25 28 24 30 36 40 38 36 34 32 33 34 38 39
1 9 2 4 3 7 2 5 3 7 5 17 12 4 4 8 7 15 18 22 25 28 31 17 15 10 7 13 17 23 24 23 24 31 35 39 39 35 35 33 34 33 37 36
1 7 6 14 7 6 6 0 4 5 1 3 4 3 4 15 17 15 15 22 24 27 31 24 13 10 4 6 10 15 18 19 25 31 33 38 37 35 33 28 28 23 26 29
4 9 6 3 5 2 6 2 3 2 5 6 5 4 4 16 18 18 17 16 24 27 30 28 15 8 6 8 10 11 13 17 24 30 32 35 33 28 24 25 28 28 29 31
4 5 8 6 2 5 4 2 4 3 2 3 5 5 3 8 13 15 15 22 24 25 28 25 18 13 9 12 13 16 15 16 18 24 28 31 29 28 28 25 27 28 29 30
6 4 4 11 11 5 5 3 2 3 5 4 3 6 1 6 10 12 14 21 23 24 26 22 20 18 18 16 17 16 14 11 13 14 19 21 22 22 20 22 23 22 24 25
4 3 5 10 6 5 2 3 5 5 3 4 2 5 2 9 11 15 15 21 23 23 25 23 24 25 24 22 22 16 13 11 11 11 15 15 19 18 19 22 23 20 21 29
10 5 11 10 13 2 14 15 13 5 2 3 6 10 7 10 11 12 18 21 22 23 25 24 25 27 28 27 24 21 14 11 9 8 9 14 17 19 21 21 21 23 26 27
6 4 3 12 18 15 17 17 15 6 5 4 4 6 7 5 7 10 16 20 20 23 25 24 25 27 28 26 26 25 20 15 12 6 3 5 8 12 15 18 20 22 23 25
3 4 2 20 12 4 5 9 9 7 3 6 6 7 2 2 8 13 14 18 19 22 24 23 24 26 28 26 24 24 23 22 17 13 10 6 2 4 7 11 15 17 21 22
5 2 1 6 3 5 4 5 4 3 3 3 3 4 2 1 4 8 16 17 16 20 21 22 25 25 25 24 23 22 21 19 19 17 15 12 7 1 6 10 13 14 15 17
8 5 3 5 6 3 6 2 4 6 5 8 5 4 2 3 7 13 13 16 19 21 23 23 23 24 23 22 22 21 20 20 21 18 15 13 10 8 4 2 7 14 16 15
16 7 3 2 2 7 4 3 5 4 6 7 6 1 2 4 7 1 11 10 10 13 17 19 21 21 21 23 23 22 22 21 18 17 15 12 9 8 8 5 2 3 8 14
9 10 5 2 2 5 6 3 5 4 4 4 5 3 2 5 2 3 7 8 9 11 15 17 18 19 19 21 21 20 19 18 18 17 15 13 12 10 8 7 6 4 1 5
4 3 10 3 3 7 6 3 7 4 5 4 6 6 5 3 3 4 3 6 9 11 12 14 15 17 18 17 17 18 17 18 17 15 14 13 12 11 10 8 5 5 3 2
6 6 3 2 1 7 7 5 4 5 3 7 11 9 7 9 7 5 4 5 6 8 11 13 15 17 17 16 15 15 16 16 14 14 14 14 13 11 10 9 7 5 4 4
2 5 4 7 5 4 16 4 8 7 4 8 13 12 11 11 9 8 6 4 7 8 10 13 15 17 18 18 17 15 15 13 13 13 13 13 12 11 10 8 8 7 6 5
3 3 2 2 2 5 13 23 16 13 11 7 11 15 15 14 12 9 6 4 5 6 10 13 15 18 20 20 18 17 16 15 13 11 11 11 11 11 10 9 8 7 7 6
3 6 5 4 5 6 8 9 13 13 12 10 13 16 16 15 15 12 9 5 2 4 8 11 15 18 20 20 19 18 16 14 13 12 11 10 10 10 10 10 9 8 6 7
5 6 4 4 4 4 9 11 7 9 15 16 17 18 17 17 17 14 11 7 3 2 5 8 12 15 16 16 15 13 13 13 12 11 11 10 10 9 9 9 8 9 8 7
Wind_Direction
243 237 242 259 213 250 266 274 276 281 288 285 285 283 275 276 270 264 262 259 255 253 260 261 255 249 251 257 256 250 247 245 231 228 225 218 222 223 229 232 224 208 199 195
345 241 269 247 252 262 271 275 280 287 284 299 298 284 284 282 273 266 263 260 253 254 255 255 258 259 248 250 255 254 252 245 242 230 224 217 217 224 227 233 222 215 208 200
182 257 293 281 277 303 283 267 278 276 305 301 285 282 281 289 276 270 270 271 263 252 255 260 261 258 255 245 250 254 247 244 241 231 227 221 223 223 214 217 220 211 218 217
235 273 269 276 285 294 283 232 280 295 303 296 0 290 309 301 25 13 349 341 320 317 269 254 253 255 258 252 240 249 248 245 234 229 223 223 220 212 210 215 227 215 212 215
257 285 292 296 273 291 264 295 281 280 275 285 281 236 291 28 355 345 333 328 327 319 316 255 251 257 254 250 247 242 243 244 236 224 223 226 225 221 218 223 231 231 226 217
257 260 239 237 290 258 287 314 306 7 101 7 255 209 282 14 334 325 326 327 329 333 324 302 262 258 256 246 248 247 236 233 235 225 222 225 225 227 224 230 234 238 234 231
304 247 260 209 350 342 40 22 326 340 351 239 308 301 299 1 348 330 327 326 331 337 334 331 314 252 238 235 235 239 229 229 232 224 221 225 223 222 226 230 234 233 227 225
297 314 234 192 172 238 289 153 270 305 312 300 312 244 170 43 3 342 332 329 333 339 339 335 334 329 230 205 212 226 226 224 231 225 217 215 223 225 227 226 224 231 245 238
308 268 273 284 286 129 280 224 227 267 294 355 275 273 182 351 354 350 341 338 338 339 340 345 343 345 349 159 175 198 208 215 219 215 213 215 218 221 225 229 226 230 221 233
272 294 277 326 357 314 173 324 285 357 311 301 286 287 281 333 339 341 342 342 339 341 349 358 3 13 43 93 119 155 163 177 199 205 209 208 209 216 228 237 235 232 234 238
146 213 285 12 214 209 340 271 239 252 229 281 306 281 264 324 334 334 338 342 340 344 355 2 9 44 63 84 98 117 139 140 154 174 187 196 204 213 223 235 240 241 243 250
207 224 274 242 275 197 173 242 261 248 292 238 269 280 344 347 340 341 339 344 347 356 7 12 16 38 70 74 81 95 102 136 136 143 173 189 199 210 212 222 234 240 241 245
205 257 310 324 354 3 167 227 255 304 270 229 261 272 12 9 354 345 342 348 351 1 9 23 28 38 64 69 68 82 82 93 125 152 173 181 192 203 213 223 225 231 237 240
269 226 234 254 267 228 294 290 293 252 224 275 246 296 344 354 344 342 345 348 355 6 15 21 28 46 57 62 68 73 75 77 95 122 152 186 201 210 217 219 223 223 236 238
194 234 193 262 265 273 263 269 277 219 219 209 271 296 318 346 336 333 339 349 357 4 15 22 28 46 55 61 68 74 73 70 72 82 122 166 193 209 218 227 224 227 228 236
189 259 130 290 277 189 258 253 241 246 199 253 272 292 174 71 6 345 354 355 357 360 11 28 38 47 53 56 59 67 74 73 72 70 76 70 77 237 225 224 221 224 233 235
175 173 334 263 332 332 338 232 200 223 211 186 249 241 4 41 28 351 349 359 360 9 17 26 36 44 49 52 56 60 65 69 73 72 69 66 67 182 229 231 231 228 225 222
228 163 221 281 353 358 243 208 170 207 229 207 253 258 250 219 140 53 19 4 8 16 22 29 36 40 44 49 52 56 59 61 61 65 63 60 59 60 73 199 233 242 243 240
208 202 247 242 195 287 328 222 187 146 286 188 212 206 303 339 170 189 28 26 23 26 29 35 41 45 45 45 45 46 48 49 51 54 54 53 51 44 47 51 75 215 235 247
186 197 189 85 150 236 240 249 157 107 314 211 164 173 186 158 74 266 14 38 45 47 52 49 49 49 50 49 48 50 52 53 53 48 42 34 33 32 31 31 28 28 340 245
144 174 219 235 267 287 243 168 139 76 241 193 188 176 179 175 164 131 59 57 57 56 57 51 45 43 44 46 47 48 47 49 45 42 37 32 28 22 17 11 4 3 358 342
171 156 188 92 162 277 164 106 165 214 164 187 192 180 161 143 149 138 130 97 80 67 55 45 40 35 31 30 32 36 37 39 35 34 31 27 21 20 15 8 356 341 325 318
292 187 177 179 212 251 196 225 231 253 229 200 197 186 176 167 167 161 153 112 76 61 48 38 33 26 22 23 27 26 24 20 20 19 18 17 17 14 6 5 3 349 332 315
251 155 212 87 253 227 237 241 253 254 244 226 197 185 179 175 172 170 162 134 93 57 38 30 25 22 20 19 21 21 17 10 5 2 1 0 358 0 2 359 351 353 347 330
210 146 210 259 287 298 296 263 263 248 225 206 192 192 186 184 180 180 176 166 101 29 20 13 16 16 14 12 10 7 9 11 6 358 347 342 341 342 344 346 346 339 332 330
190 205 181 233 218 228 267 307 292 234 220 208 197 191 193 194 189 184 187 192 201 337 356 360 4 7 7 5 2 357 353 357 359 357 351 336 325 324 323 327 333 331 325 311